Regional Weather Roundup
Issued by NWS Boston, MA

Home | Current Version | Previous Version | Text Only | Print | Product List | Glossary On
Versions: 1 2 3 4 5 6 7 8 9 10 11 12 13 14 15 16 17 18 19 20 21 22 23 24 25 26 27 28 29 30 31 32 33 34 35 36 37 38 39 40 41 42 43 44 45 46 47 48 49 50
000
ASUS41 KBOX 260110
RWRBOX

REGIONAL WEATHER ROUNDUP
NATIONAL WEATHER SERVICE TAUNTON MA
900 PM EDT THU MAY 25 2017

NOTE:  "FAIR" INDICATES FEW OR NO CLOUDS BELOW 12,000 FEET WITH NO
SIGNIFICANT WEATHER AND/OR OBSTRUCTIONS TO VISIBILITY.

MAZALL-260200-
EASTERN MASSACHUSETTS

CITY           SKY/WX    TMP DP  RH WIND       PRES   REMARKS
BOSTON         DRIZZLE   51  51 100 NE15      29.68F FOG
BEVERLY        CLOUDY    52  50  93 NE13      29.69F FOG
LAWRENCE       CLOUDY    52  49  89 NE15G21   29.72F FOG
BEDFORD        CLOUDY    51  48  89 NE10G22   29.69R FOG
BLUE HILL        N/A     50  49  96 NE13G24   29.65S
NORWOOD        CLOUDY    52  51  97 NE7       29.67S FOG
MARSHFIELD     FOG       54  54 100 NE7       29.65S VSB 1/4
PLYMOUTH       FOG       53  52  96 NE7       29.64F VSB 1/2
TAUNTON        CLOUDY    53  52  96 VRB3      29.63F FOG
NEW BEDFORD    CLOUDY    54  54 100 NE6       29.62F FOG
$$

MAZALL-260200-
CAPE COD AND THE ISLANDS

CITY           SKY/WX    TMP DP  RH WIND       PRES   REMARKS
FALMOUTH         N/A    N/A N/A N/A MISG        N/A
HYANNIS        FOG       56  56 100 SE3       29.63S VSB 3/4
CHATHAM        FOG       55  55 100 E5        29.64F VSB 1/2
PROVINCETOWN   FOG       53  52  96 E9        29.65F VSB 1
NANTUCKET      LGT RAIN  56  55  97 SE8       29.63S VSB 1/2
MARTHAS VNYRD  FOG       57  55  93 NE7       29.62S VSB 1/2
$$

MAZALL-260200-
CENTRAL AND WESTERN MASSACHUSETTS

CITY           SKY/WX    TMP DP  RH WIND       PRES   REMARKS
WORCESTER      LGT RAIN  49  47  93 NE12G23   29.67R VSB 1
FITCHBURG      CLOUDY    52  50  93 VRB5      29.72R FOG
ORANGE         LGT RAIN  51  49  92 NE8       29.68R
SPRINGFIELD    DRIZZLE   53  51  93 NE12      29.64S
WESTFIELD      LGT RAIN  53  53 100 N8        29.64F FOG
NORTH ADAMS    LGT RAIN  54  47  77 E15G23    29.64R
PITTSFIELD     CLOUDY    51  47  86 NE9       29.63R
$$

RIZALL-260200-
RHODE ISLAND

CITY           SKY/WX    TMP DP  RH WIND       PRES   REMARKS
PROVIDENCE     DRZL/FOG  53  53 100 N9        29.64S VSB 1
NEWPORT        CLOUDY    56  56 100 N7        29.62S FOG
BLOCK ISLAND   LGT RAIN N/A N/A N/A NE13      29.60F VSB 1/2
SMITHFIELD     LGT RAIN  52  51  97 NE8       29.65S FOG
WESTERLY       CLOUDY    57  56  96 NE7       29.60F FOG
$$

CTZALL-260200-
CONNECTICUT

CITY           SKY/WX    TMP DP  RH WIND       PRES   REMARKS
BRADLEY INTL   LGT RAIN  53  52  96 N14       29.63F FOG
HARTFORD       CLOUDY    55  54  96 N9        29.61F FOG
BRIDGEPORT     LGT RAIN  59  56  89 NE10      29.54F FOG
DANBURY        CLOUDY    54  54 100 NE9       29.57F FOG
GROTON         CLOUDY    57  55  93 NE10      29.58F
NEW HAVEN      CLOUDY    57  55  93 N10       29.55F FOG
CHESTER        CLOUDY    55  55 100 NE6       29.57F FOG
MERIDEN        CLOUDY    55  54  96 N7        29.58F FOG
WILLIMANTIC    CLOUDY    56  53  90 NE10      29.63S
OXFORD         LGT RAIN  54  48  82 E12G17    29.58F FOG
$$

MEZ002-015-021-024-NHZ003-005-008-011-012-014-VTZ005-008-260200-
NORTHERN NEW ENGLAND

CITY           SKY/WX    TMP DP  RH WIND       PRES   REMARKS
PORTLAND ME    RAIN      50  48  93 E15G30    29.82R FOG
BANGOR ME      CLOUDY    57  50  77 E10       29.87R
CONCORD NH     LGT RAIN  51  48  89 NE10      29.74F FOG
MANCHESTER NH  LGT RAIN  50  47  89 NE10G18   29.72F FOG
NASHUA NH      LGT RAIN  50  50 100 NE8       29.73F FOG
PORTSMOUTH NH  LGT RAIN  49  48  95 NE13G24   29.74S FOG
JAFFREY NH     CLOUDY    49  49 100 MISG      29.71S FOG
KEENE NH       CLOUDY    53  47  79 VRB6G18   29.69R
BURLINGTON VT  CLOUDY    56  52  86 SE5       29.68F
MT. WASHINGTON LGT RAIN  34  34 100 SE52G68     N/A  VSB 0   WCI  17
$$

NYZ052-076-260200-
EASTERN NEW YORK

CITY           SKY/WX    TMP DP  RH WIND       PRES   REMARKS
ALBANY         LGT RAIN  56  54  93 NE5       29.62R FOG
NEW YORK CITY  DRIZZLE   57  56  96 NE17      29.49F FOG
$$

ANZALL-260200-
MARINE OBSERVATIONS

STATION/POSITION TIME  TEMP    WIND        PRES    VSBY  WAVE
                       AIR SEA DIR/SP/G                  HT/PER
                 (UTC) (F)     (DEG/KT/KT) (MB)    (MI)  (FT/S)
BOSTON BUOY      0050   51 53   60/ 14/ 17 1003.7F         6/ 6
BUZZARDS BAY     0000   55      50/ 14/ 16 1003.2F
NANTUCKET SOUND  0050      54              1003.1S         1/ 6
MASS BAY-STELLWA 0004   51 52   70/ 14/ 17 1004.9F         7/ 6
ISLE OF SHOALS   0000   49      60/ 25/ 27 1006.0R
S OF BLOCK IS    0055      53                N/A           5/ 9
$$

......................KEY.........................
  SKY/WX - SKY CONDITION/PRESENT WEATHER
  TMP    - TEMPERATURE IN FAHRENHEIT
  DWPT   - DEWPOINT IN FAHRENHEIT
  RH     - RELATIVE HUMIDITY IN PERCENT
  WIND   - DIRECTION AND SPEED IN MPH
  PRES   - MEAN SEA LEVEL PRESSURE IN INCHES OF HG
  WCI    - WIND CHILL INDEX
  VSB    - VISIBILITY IN MILES
  HX     - HEAT INDEX
  TC     - TEMPERATURE IN CELSIUS
  VRB    - VARIABLE WIND DIRECTION
  N/A    - NOT AVAILABLE



USA.gov is the U.S. government's official web portal to all federal, state and local government web resources and services.